Abbotsford, British Columbia

7:59 AM PST on December 14, 2017 (GMT -0800)
Abbotsford

Weather History for CYXX - December, 2013

Change the Weather History Date:

Saturday, December 7, 2013

  Actual Average Record
Temperature  
Mean Temperature 20 °F -  
Max Temperature 26 °F 42 °F 54 °F (2015)
Min Temperature 14 °F 31 °F 14 °F (2013)
Degree Days  
Heating Degree Days 45    
Moisture  
Dew Point -5 °F    
Average Humidity 33    
Maximum Humidity 62    
Minimum Humidity 13    
Precipitation  
Precipitation 0.00 in 0.28 in - ()
Sea Level Pressure  
Sea Level Pressure 30.40 in    
Wind  
Wind Speed 16 mph ()    
Max Wind Speed 32 mph    
Max Gust Speed 47 mph    
Visibility 14.5 miles    
Events      
Averages and records for this station are not official NWS values.
T = Trace of Precipitation, MM = Missing Value Source: Averaged Metar Reports

Daily Weather History Graph

Daily Weather History Graph

Search for Another Location

Airport or City:

Trip Planner

Search our weather history database for the weather conditions in past years. The results will help you decide how hot, cold, wet, or windy it might be!

Date:

Astronomy

Dec. 07, 2013 Rise Set
Actual Time 7:49 AM PST 4:12 PM PST
Civil Twilight 7:12 AM PST 4:49 PM PST
Nautical Twilight 6:32 AM PST 5:29 PM PST
Astronomical Twilight 5:54 AM PST 6:07 PM PST
Moon 11:19 AM PST (12/7) 10:21 PM PST (12/7)
Length of Visible Light 9h 36m
Length of Day
8h 22m
Waxing Crescent, 30% of the Moon is Illuminated
Dec 7
Waxing Crescent
Dec 9
First Quarter
Dec 17
Full
Dec 25
Last Quarter
Jan 1
New

Hourly Weather History & Observations

Time (PST) Temp. Windchill Dew Point Humidity Pressure Visibility Wind Dir Wind Speed Gust Speed Precip Events Conditions
12:00 AM 19.4 °F -0.0 °F -7.6 °F 30% 30.37 in 15.0 mi NE 32.2 mph 42.6 mph N/A   Clear
1:00 AM 19.4 °F 0.2 °F -5.8 °F 33% 30.36 in 15.0 mi NE 31.1 mph 42.6 mph N/A   Clear
2:00 AM 19.4 °F 1.4 °F -7.6 °F 30% 30.36 in 15.0 mi NE 26.5 mph 47.2 mph N/A   Clear
3:00 AM 19.4 °F 0.5 °F -7.6 °F 30% 30.36 in 15.0 mi NE 29.9 mph 43.7 mph N/A   Clear
4:00 AM 19 °F - -8 °F 16% 30.38 in 15 mi NE 25.3 mph - -  
4:00 AM 19.4 °F 1.8 °F -7.6 °F 30% 30.38 in 15.0 mi NE 25.3 mph 43.7 mph N/A   Clear
5:00 AM 19.4 °F 6.0 °F -9.4 °F 28% 30.39 in 7.0 mi NNE 13.8 mph 32.2 mph N/A   Clear
6:00 AM 19.4 °F 1.8 °F -9.4 °F 28% 30.37 in 15.0 mi NE 25.3 mph 34.5 mph N/A   Clear
7:00 AM 19.4 °F 1.8 °F -9.4 °F 28% 30.38 in 30.0 mi NE 25.3 mph 36.8 mph N/A   Clear
8:00 AM 17.6 °F 4.3 °F -7.6 °F 32% 30.41 in 30.0 mi ENE 12.7 mph 23.0 mph N/A   Clear
9:00 AM 21.2 °F 7.3 °F -7.6 °F 28% 30.42 in 30.0 mi NE 16.1 mph 28.8 mph N/A   Clear
10:00 AM 22 °F - -8 °F 13% 30.44 in 28 mi NE 13.8 mph - -  
10:00 AM 21.2 °F 8.9 °F -7.6 °F 28% 30.43 in 30.0 mi ENE 12.7 mph 21.9 mph N/A   Clear
11:00 AM 23.0 °F 11.7 °F -7.6 °F 26% 30.43 in 30.0 mi NE 11.5 mph - N/A   Clear
12:00 PM 24.8 °F 14.6 °F -5.8 °F 26% 30.40 in 30.0 mi ENE 10.4 mph 20.7 mph N/A   Clear
1:00 PM 26.6 °F 16.8 °F -7.6 °F 22% 30.38 in 30.0 mi ENE 10.4 mph 19.6 mph N/A   Clear
2:00 PM 26.6 °F 16.8 °F -5.8 °F 24% 30.38 in 30.0 mi NE 10.4 mph - N/A   Clear
3:00 PM 24.8 °F 14.0 °F -4.0 °F 28% 30.40 in 30.0 mi East 11.5 mph - N/A   Clear
4:00 PM 24 °F - -5 °F 14% 30.42 in 28 mi NNE 3.5 mph - -   Clear
4:00 PM 23.0 °F 18.4 °F -4.0 °F 31% 30.41 in 30.0 mi North 3.5 mph - N/A   Partly Cloudy
5:00 PM 17.6 °F 10.7 °F -2.2 °F 42% 30.42 in 15.0 mi SE 4.6 mph - N/A   Clear
6:00 PM 19.4 °F - -0.4 °F 42% 30.43 in 15.0 mi NE 2.3 mph - N/A   Clear
7:00 PM 15.8 °F 10.2 °F -0.4 °F 49% 30.43 in 15.0 mi North 3.5 mph - N/A   Scattered Clouds
8:00 PM 15.8 °F 8.6 °F -0.4 °F 49% 30.43 in 15.0 mi NNE 4.6 mph - N/A   Partly Cloudy
9:00 PM 14.0 °F 8.2 °F 1.4 °F 57% 30.43 in 15.0 mi WNW 3.5 mph - N/A   Partly Cloudy
10:00 PM 14 °F - 2 °F 46% 30.43 in 15 mi North 5.8 mph - -  
10:00 PM 14.0 °F 6.5 °F 3.2 °F 62% 30.43 in 15.0 mi North 4.6 mph - N/A   Clear
11:00 PM 14.0 °F - 1.4 °F 57% 30.45 in 15.0 mi North 2.3 mph - N/A   Clear